Find Kosmos-1323

NORAD ID: 12978 Int'l Des: 1981-116 Owner: GUKOS Country: SU operational
LEOCIRCULAR

实时位置

正在加载3D地球...

关于 Kosmos-1323

正在加载描述...

即将过境

Passes for default location (London). Set your location on the main map for personalized predictions.

高度历史

Loading altitude history...

两行轨道根数

1 12978U 81116D 26107.31911264 -.00000027 00000-0 -99509-4 0 9994
2 12978 73.9794 92.7721 0090364 314.7675 109.7454 12.29207178991571
Epoch: Apr 17, 2026 • Age: 6 hours

当前状态

高度 1626.3 km
速度 7.04 km/s
星下点 68.42°N, 174.47°E
发射日期 Nov 28, 1981
运行时间 44.3 years
类型 other

技术详情

分类 Payload
质量 60.00 kg
干质量 60.00 kg
总质量 60.00 kg
长度 0.80 m
直径 0.80 m
跨度 0.80 m
形状 Poly
制造商 NPOPM
平台类型 Strela-1 11F625
阶段状态 In Orbit
所有者/国家 GUKOS/SU

Most Searched